GEFSNE_prec_meanprecacc_156.txt.gz
Total_Precipitation_Accumulation
1.30 1.28 1.30 1.26 1.26 1.29 1.37 1.51 1.66 1.49 1.10 0.80 0.71 0.67 0.68 0.68 0.70 0.65 0.55 0.60 0.58 0.57 0.59 0.59 0.60 0.62 0.67 0.75 0.85 0.94 1.01 1.08 1.16 1.25 1.33 1.43 1.58 1.79
1.15 1.16 1.16 1.15 1.19 1.24 1.30 1.35 1.49 1.57 1.31 0.87 0.71 0.66 0.68 0.67 0.68 0.61 0.54 0.61 0.57 0.56 0.56 0.57 0.56 0.54 0.56 0.60 0.68 0.75 0.81 0.86 0.96 1.09 1.22 1.34 1.45 1.58
1.00 1.00 0.98 0.98 1.04 1.08 1.13 1.17 1.23 1.33 1.29 0.91 0.72 0.67 0.66 0.62 0.59 0.56 0.51 0.49 0.46 0.50 0.52 0.54 0.55 0.55 0.55 0.57 0.60 0.66 0.71 0.76 0.85 0.96 1.10 1.20 1.29 1.32
0.86 0.90 0.88 0.89 0.92 0.97 1.03 1.02 1.02 1.04 1.11 0.96 0.71 0.62 0.57 0.52 0.50 0.49 0.47 0.44 0.39 0.45 0.48 0.52 0.58 0.61 0.58 0.56 0.56 0.60 0.65 0.70 0.74 0.79 0.87 0.95 1.05 1.17
0.77 0.83 0.85 0.89 0.93 0.95 0.97 0.96 0.94 0.96 1.02 1.03 0.78 0.62 0.56 0.52 0.52 0.48 0.46 0.45 0.41 0.43 0.47 0.48 0.50 0.55 0.58 0.59 0.59 0.59 0.61 0.64 0.70 0.72 0.75 0.81 0.90 1.02
0.79 0.83 0.86 0.86 0.84 0.83 0.85 0.84 0.87 0.92 0.94 0.99 0.92 0.75 0.63 0.53 0.55 0.55 0.52 0.46 0.45 0.45 0.51 0.51 0.51 0.52 0.55 0.56 0.54 0.54 0.55 0.60 0.70 0.81 0.87 0.90 0.90 0.93
0.91 0.87 0.85 0.86 0.83 0.80 0.80 0.81 0.85 0.91 0.98 1.04 0.98 0.83 0.68 0.60 0.54 0.52 0.57 0.56 0.54 0.48 0.51 0.51 0.53 0.56 0.59 0.64 0.66 0.66 0.67 0.73 0.84 0.96 1.05 1.10 1.08 1.05
0.90 0.83 0.80 0.82 0.79 0.80 0.80 0.80 0.87 0.98 1.06 1.11 1.04 0.88 0.67 0.60 0.61 0.71 0.80 0.90 0.83 0.55 0.59 0.68 0.73 0.79 0.75 0.75 0.84 0.88 0.89 0.94 0.98 1.03 1.08 1.12 1.12 1.11
0.81 0.76 0.71 0.68 0.71 0.65 0.69 0.76 0.80 0.90 0.98 0.98 0.92 0.73 0.63 0.61 0.77 0.92 0.95 0.98 0.86 0.67 0.77 0.89 0.83 0.81 0.75 0.78 0.92 0.89 0.86 0.88 0.92 0.96 0.99 1.02 1.02 1.01
0.68 0.64 0.63 0.61 0.62 0.67 0.74 0.80 0.74 0.69 0.69 0.68 0.66 0.61 0.62 0.67 0.85 1.07 1.15 1.17 0.99 0.83 0.80 0.88 0.75 0.69 0.65 0.68 0.79 0.80 0.77 0.79 0.84 0.89 0.90 0.93 0.95 0.91
0.63 0.61 0.61 0.59 0.66 0.79 0.84 0.84 0.71 0.59 0.59 0.65 0.70 0.68 0.71 0.75 0.82 1.07 1.29 1.39 1.19 0.83 0.70 0.74 0.70 0.68 0.67 0.65 0.69 0.77 0.75 0.75 0.79 0.82 0.83 0.85 0.88 0.90
0.63 0.62 0.67 0.66 0.76 0.88 0.83 0.82 0.73 0.59 0.57 0.58 0.59 0.59 0.56 0.58 0.71 0.87 1.26 1.65 1.39 1.02 0.69 0.75 0.79 0.89 1.06 0.74 0.65 0.69 0.72 0.72 0.71 0.73 0.76 0.79 0.80 0.79
0.67 0.61 0.61 0.75 0.84 0.88 0.79 0.65 0.65 0.73 0.66 0.58 0.58 0.57 0.56 0.56 0.59 0.65 0.90 1.52 1.80 1.37 0.81 1.09 1.24 1.00 1.14 0.87 0.69 0.70 0.74 0.79 0.79 0.78 0.81 0.82 0.79 0.83
0.62 0.56 0.58 0.73 0.73 0.69 0.64 0.64 0.71 0.67 0.55 0.57 0.59 0.58 0.58 0.59 0.62 0.66 0.71 0.87 1.19 1.36 1.06 1.29 1.63 1.24 1.27 1.02 0.74 0.72 0.78 0.91 1.03 1.00 0.94 0.98 0.91 0.87
0.60 0.63 0.65 0.65 0.59 0.55 0.59 0.62 0.61 0.58 0.61 0.68 0.66 0.61 0.60 0.66 0.70 0.75 0.76 0.77 0.83 0.89 0.92 1.00 1.28 1.28 1.36 1.25 0.93 0.80 0.90 0.98 1.13 1.30 1.26 1.11 0.95 0.86
0.64 0.65 0.60 0.55 0.53 0.53 0.58 0.57 0.52 0.57 0.72 0.78 0.71 0.64 0.65 0.73 0.78 0.84 0.97 0.98 1.03 0.97 0.90 0.87 0.96 1.20 1.25 0.98 1.03 0.99 1.01 1.26 1.33 1.51 1.48 1.24 1.01 0.85
0.63 0.53 0.50 0.51 0.51 0.49 0.48 0.50 0.54 0.58 0.64 0.68 0.74 0.75 0.74 0.83 0.92 1.02 1.16 1.23 1.25 1.08 0.93 0.79 0.74 0.81 0.94 0.98 0.99 0.91 1.01 1.24 1.44 1.55 1.53 1.39 1.17 0.98
0.58 0.50 0.47 0.47 0.48 0.49 0.49 0.49 0.52 0.58 0.67 0.77 0.82 0.86 0.92 0.98 1.07 1.14 1.27 1.36 1.28 1.07 0.90 0.77 0.70 0.72 0.73 0.74 0.85 1.00 1.08 1.27 1.42 1.42 1.27 1.26 1.24 1.05
0.47 0.45 0.46 0.46 0.46 0.48 0.53 0.56 0.57 0.58 0.73 0.91 0.99 1.04 1.11 1.15 1.21 1.26 1.27 1.24 1.10 0.95 0.83 0.75 0.78 0.99 0.98 0.72 0.61 0.85 1.24 1.35 1.27 1.23 1.10 1.03 1.13 1.01
0.44 0.43 0.42 0.44 0.48 0.53 0.58 0.66 0.70 0.71 0.80 0.93 1.03 1.08 1.17 1.27 1.31 1.26 1.18 1.10 1.00 0.83 0.68 0.60 0.68 0.99 1.33 1.17 0.95 0.90 1.02 1.23 1.27 1.20 0.98 0.87 0.93 0.92
0.42 0.42 0.42 0.45 0.51 0.56 0.62 0.71 0.81 0.91 0.98 1.11 1.14 1.17 1.23 1.36 1.33 1.17 1.03 0.90 0.82 0.72 0.62 0.52 0.53 0.72 0.97 1.07 0.99 0.90 1.00 1.09 1.17 1.32 1.19 1.06 0.93 0.84
0.45 0.45 0.44 0.47 0.53 0.59 0.65 0.75 0.87 0.94 1.03 1.11 1.15 1.17 1.22 1.30 1.24 1.02 0.83 0.77 0.69 0.64 0.59 0.51 0.47 0.54 0.75 1.00 0.95 0.81 0.84 0.87 0.83 0.79 0.92 1.18 1.47 1.52
0.50 0.52 0.51 0.52 0.57 0.64 0.71 0.78 0.89 0.98 1.06 1.17 1.18 1.14 1.11 1.04 0.88 0.80 0.74 0.71 0.70 0.65 0.60 0.57 0.52 0.54 0.64 0.74 0.84 0.79 0.72 0.69 0.64 0.70 0.88 0.87 0.95 1.14

GEFSNE_prec_meanprecacc_162.txt.gz
Total_Precipitation_Accumulation
1.33 1.32 1.35 1.31 1.32 1.35 1.44 1.59 1.76 1.59 1.17 0.86 0.77 0.74 0.74 0.75 0.78 0.71 0.60 0.65 0.64 0.64 0.66 0.66 0.66 0.67 0.70 0.77 0.86 0.96 1.03 1.11 1.19 1.28 1.37 1.48 1.64 1.85
1.19 1.21 1.21 1.19 1.24 1.30 1.36 1.43 1.57 1.66 1.39 0.93 0.76 0.71 0.73 0.73 0.74 0.67 0.60 0.67 0.63 0.62 0.63 0.64 0.62 0.60 0.60 0.63 0.70 0.78 0.83 0.89 0.98 1.11 1.26 1.39 1.51 1.65
1.05 1.06 1.03 1.02 1.08 1.12 1.17 1.24 1.31 1.41 1.37 0.98 0.78 0.72 0.71 0.67 0.64 0.61 0.55 0.54 0.51 0.56 0.57 0.59 0.61 0.60 0.61 0.62 0.64 0.70 0.75 0.79 0.88 0.99 1.13 1.24 1.34 1.39
0.94 0.98 0.97 0.95 0.97 1.01 1.07 1.07 1.07 1.10 1.17 1.01 0.75 0.66 0.61 0.57 0.55 0.53 0.51 0.48 0.43 0.49 0.52 0.56 0.64 0.66 0.63 0.61 0.61 0.64 0.70 0.75 0.79 0.84 0.92 1.00 1.10 1.23
0.85 0.92 0.95 0.98 1.00 1.00 1.01 1.01 1.00 1.01 1.08 1.07 0.82 0.66 0.59 0.55 0.56 0.52 0.49 0.48 0.43 0.46 0.50 0.50 0.53 0.58 0.61 0.62 0.62 0.62 0.64 0.68 0.74 0.77 0.81 0.87 0.96 1.07
0.85 0.89 0.92 0.92 0.89 0.88 0.90 0.89 0.92 0.96 0.98 1.03 0.95 0.78 0.66 0.56 0.59 0.58 0.56 0.49 0.47 0.47 0.54 0.54 0.54 0.55 0.57 0.58 0.56 0.56 0.57 0.63 0.74 0.85 0.93 0.96 0.96 0.98
0.95 0.92 0.90 0.92 0.88 0.84 0.84 0.85 0.88 0.93 1.01 1.08 1.02 0.86 0.72 0.63 0.57 0.54 0.60 0.58 0.56 0.50 0.53 0.53 0.56 0.59 0.61 0.66 0.69 0.68 0.70 0.77 0.88 1.00 1.09 1.14 1.12 1.11
0.95 0.87 0.83 0.85 0.83 0.85 0.85 0.84 0.90 1.00 1.08 1.13 1.06 0.91 0.70 0.63 0.63 0.73 0.83 0.92 0.85 0.57 0.61 0.71 0.76 0.82 0.79 0.78 0.86 0.90 0.92 0.97 1.02 1.07 1.12 1.16 1.17 1.16
0.85 0.79 0.74 0.72 0.75 0.69 0.74 0.80 0.83 0.93 1.00 1.00 0.94 0.75 0.65 0.62 0.79 0.94 0.97 1.00 0.87 0.69 0.80 0.92 0.86 0.84 0.78 0.81 0.94 0.90 0.88 0.91 0.95 0.99 1.03 1.06 1.08 1.07
0.73 0.67 0.65 0.64 0.65 0.71 0.78 0.84 0.76 0.71 0.71 0.69 0.67 0.62 0.63 0.68 0.86 1.08 1.17 1.19 1.01 0.85 0.83 0.91 0.78 0.72 0.68 0.72 0.82 0.81 0.78 0.82 0.87 0.93 0.95 0.99 1.01 0.98
0.67 0.65 0.65 0.62 0.69 0.83 0.88 0.88 0.74 0.61 0.61 0.67 0.71 0.69 0.72 0.76 0.83 1.07 1.30 1.41 1.21 0.85 0.72 0.77 0.73 0.71 0.70 0.68 0.73 0.81 0.78 0.79 0.84 0.88 0.89 0.91 0.96 0.98
0.66 0.65 0.71 0.70 0.79 0.90 0.86 0.85 0.77 0.61 0.59 0.60 0.61 0.60 0.56 0.58 0.72 0.88 1.28 1.67 1.41 1.04 0.70 0.77 0.81 0.92 1.09 0.77 0.67 0.72 0.75 0.76 0.77 0.81 0.85 0.88 0.90 0.89
0.71 0.65 0.65 0.80 0.88 0.92 0.82 0.67 0.68 0.75 0.68 0.60 0.59 0.58 0.57 0.57 0.60 0.66 0.90 1.53 1.82 1.38 0.82 1.11 1.27 1.03 1.17 0.90 0.71 0.72 0.76 0.83 0.86 0.86 0.90 0.91 0.90 0.93
0.66 0.60 0.63 0.78 0.78 0.73 0.67 0.67 0.75 0.70 0.57 0.60 0.61 0.60 0.59 0.60 0.62 0.67 0.72 0.88 1.20 1.37 1.07 1.31 1.67 1.27 1.31 1.06 0.77 0.75 0.80 0.95 1.09 1.06 1.02 1.08 1.03 0.99
0.64 0.68 0.71 0.71 0.65 0.60 0.63 0.66 0.64 0.61 0.64 0.70 0.68 0.62 0.62 0.67 0.71 0.76 0.77 0.78 0.84 0.90 0.93 1.02 1.31 1.32 1.41 1.31 0.97 0.84 0.95 1.03 1.19 1.36 1.32 1.20 1.06 1.00
0.67 0.69 0.65 0.61 0.59 0.59 0.63 0.61 0.55 0.59 0.75 0.81 0.73 0.66 0.67 0.74 0.79 0.86 0.98 0.99 1.04 0.98 0.91 0.89 0.98 1.23 1.29 1.03 1.08 1.05 1.07 1.33 1.40 1.58 1.55 1.31 1.09 0.95
0.66 0.57 0.52 0.53 0.55 0.54 0.53 0.56 0.58 0.61 0.68 0.71 0.76 0.77 0.76 0.84 0.93 1.03 1.18 1.25 1.27 1.10 0.95 0.81 0.76 0.83 0.97 1.02 1.05 0.97 1.06 1.30 1.51 1.62 1.61 1.46 1.25 1.06
0.60 0.53 0.50 0.49 0.50 0.52 0.52 0.53 0.57 0.62 0.71 0.80 0.85 0.89 0.94 1.00 1.09 1.15 1.28 1.38 1.30 1.09 0.92 0.78 0.73 0.76 0.77 0.78 0.89 1.05 1.13 1.33 1.47 1.48 1.34 1.33 1.32 1.13
0.49 0.47 0.48 0.48 0.49 0.51 0.55 0.60 0.62 0.63 0.77 0.94 1.02 1.07 1.15 1.19 1.24 1.28 1.30 1.26 1.13 0.97 0.86 0.78 0.82 1.05 1.04 0.77 0.65 0.89 1.30 1.41 1.32 1.29 1.16 1.09 1.19 1.08
0.45 0.45 0.44 0.46 0.50 0.55 0.60 0.69 0.74 0.75 0.84 0.97 1.06 1.11 1.20 1.31 1.35 1.29 1.20 1.13 1.02 0.85 0.70 0.62 0.70 1.04 1.40 1.24 1.01 0.94 1.06 1.29 1.34 1.26 1.04 0.93 0.99 0.98
0.42 0.42 0.42 0.46 0.52 0.58 0.64 0.73 0.83 0.93 1.01 1.14 1.17 1.19 1.26 1.40 1.36 1.20 1.06 0.92 0.85 0.75 0.65 0.53 0.55 0.74 1.01 1.12 1.04 0.93 1.02 1.12 1.22 1.38 1.24 1.12 1.00 0.92
0.45 0.45 0.44 0.47 0.54 0.60 0.66 0.76 0.88 0.96 1.05 1.13 1.18 1.20 1.25 1.33 1.27 1.05 0.86 0.79 0.71 0.66 0.61 0.52 0.48 0.56 0.78 1.05 0.99 0.85 0.87 0.89 0.87 0.85 1.00 1.24 1.53 1.59
0.51 0.52 0.51 0.53 0.58 0.64 0.72 0.79 0.91 0.99 1.07 1.18 1.21 1.16 1.13 1.07 0.91 0.83 0.76 0.74 0.72 0.66 0.62 0.59 0.54 0.57 0.66 0.78 0.87 0.83 0.76 0.73 0.69 0.77 0.97 0.96 1.01 1.19

GEFSNE_prec_meanprecacc_168.txt.gz
Total_Precipitation_Accumulation
1.34 1.34 1.37 1.33 1.34 1.38 1.47 1.64 1.83 1.65 1.22 0.90 0.80 0.77 0.78 0.78 0.81 0.74 0.63 0.68 0.67 0.66 0.70 0.71 0.71 0.74 0.78 0.85 0.93 1.01 1.09 1.17 1.24 1.31 1.39 1.50 1.66 1.88
1.20 1.22 1.22 1.21 1.26 1.32 1.39 1.46 1.62 1.71 1.44 0.96 0.78 0.74 0.77 0.76 0.78 0.70 0.62 0.69 0.66 0.64 0.65 0.66 0.65 0.64 0.67 0.73 0.78 0.83 0.87 0.94 1.03 1.15 1.28 1.41 1.53 1.67
1.07 1.08 1.05 1.04 1.10 1.14 1.20 1.27 1.35 1.46 1.41 1.00 0.81 0.75 0.75 0.72 0.68 0.63 0.58 0.56 0.53 0.58 0.59 0.61 0.63 0.62 0.64 0.68 0.71 0.76 0.79 0.83 0.92 1.03 1.16 1.27 1.37 1.43
0.96 1.01 1.00 0.98 1.00 1.03 1.09 1.10 1.11 1.14 1.22 1.05 0.78 0.69 0.65 0.61 0.59 0.57 0.53 0.50 0.46 0.52 0.54 0.58 0.65 0.68 0.65 0.64 0.65 0.69 0.75 0.79 0.83 0.87 0.96 1.04 1.14 1.27
0.88 0.95 0.98 1.01 1.03 1.03 1.04 1.04 1.03 1.06 1.12 1.12 0.86 0.69 0.62 0.58 0.59 0.55 0.52 0.51 0.46 0.49 0.52 0.53 0.55 0.60 0.63 0.65 0.65 0.65 0.67 0.71 0.77 0.81 0.85 0.91 0.99 1.11
0.88 0.92 0.96 0.96 0.94 0.92 0.94 0.93 0.96 1.01 1.03 1.08 1.00 0.82 0.69 0.59 0.62 0.62 0.59 0.52 0.50 0.50 0.56 0.56 0.56 0.57 0.59 0.60 0.59 0.58 0.59 0.65 0.77 0.88 0.96 1.00 0.99 1.02
0.99 0.95 0.94 0.97 0.93 0.88 0.88 0.89 0.92 0.98 1.05 1.12 1.05 0.89 0.74 0.65 0.59 0.56 0.62 0.60 0.57 0.52 0.55 0.55 0.57 0.60 0.63 0.68 0.71 0.71 0.73 0.79 0.90 1.02 1.11 1.16 1.16 1.14
0.98 0.90 0.87 0.89 0.88 0.89 0.88 0.88 0.94 1.04 1.13 1.17 1.10 0.93 0.72 0.64 0.65 0.74 0.84 0.94 0.86 0.58 0.62 0.72 0.77 0.83 0.80 0.80 0.89 0.93 0.94 0.99 1.04 1.09 1.14 1.18 1.19 1.18
0.88 0.83 0.78 0.75 0.79 0.73 0.77 0.83 0.86 0.96 1.04 1.04 0.97 0.77 0.67 0.64 0.80 0.96 0.99 1.02 0.88 0.70 0.81 0.93 0.87 0.85 0.79 0.82 0.97 0.93 0.91 0.93 0.96 1.01 1.05 1.08 1.10 1.09
0.76 0.71 0.69 0.67 0.68 0.74 0.81 0.87 0.79 0.75 0.75 0.73 0.70 0.65 0.65 0.70 0.89 1.11 1.19 1.21 1.03 0.86 0.84 0.93 0.79 0.73 0.69 0.73 0.84 0.84 0.81 0.84 0.89 0.95 0.97 1.01 1.03 1.01
0.70 0.68 0.68 0.64 0.72 0.86 0.91 0.92 0.79 0.65 0.66 0.72 0.76 0.73 0.75 0.79 0.86 1.11 1.33 1.45 1.24 0.87 0.73 0.78 0.74 0.72 0.71 0.69 0.74 0.83 0.81 0.81 0.86 0.90 0.91 0.94 0.99 1.02
0.69 0.68 0.74 0.72 0.81 0.92 0.88 0.87 0.80 0.64 0.62 0.64 0.65 0.65 0.60 0.61 0.75 0.91 1.30 1.70 1.44 1.06 0.71 0.78 0.82 0.93 1.11 0.78 0.68 0.74 0.78 0.79 0.80 0.83 0.87 0.90 0.93 0.93
0.75 0.68 0.68 0.83 0.91 0.95 0.85 0.70 0.71 0.78 0.71 0.63 0.62 0.62 0.60 0.60 0.63 0.69 0.93 1.55 1.84 1.40 0.83 1.12 1.28 1.04 1.19 0.91 0.72 0.74 0.79 0.86 0.89 0.88 0.92 0.93 0.93 0.98
0.70 0.64 0.66 0.82 0.81 0.77 0.72 0.72 0.79 0.74 0.61 0.64 0.65 0.64 0.63 0.63 0.66 0.70 0.75 0.90 1.22 1.39 1.09 1.33 1.68 1.29 1.32 1.07 0.79 0.77 0.83 0.98 1.12 1.10 1.04 1.10 1.05 1.03
0.67 0.71 0.75 0.75 0.69 0.63 0.67 0.71 0.69 0.65 0.67 0.75 0.72 0.66 0.65 0.69 0.74 0.79 0.80 0.81 0.87 0.92 0.95 1.03 1.32 1.33 1.43 1.33 1.00 0.86 0.98 1.07 1.23 1.41 1.36 1.23 1.09 1.04
0.69 0.71 0.67 0.64 0.62 0.62 0.67 0.65 0.59 0.64 0.80 0.86 0.77 0.70 0.70 0.78 0.82 0.89 1.02 1.02 1.07 1.01 0.93 0.90 0.99 1.24 1.31 1.04 1.10 1.07 1.11 1.38 1.45 1.63 1.60 1.36 1.13 0.99
0.68 0.58 0.54 0.55 0.57 0.57 0.57 0.59 0.61 0.65 0.73 0.76 0.81 0.82 0.81 0.88 0.97 1.06 1.21 1.28 1.29 1.12 0.96 0.82 0.77 0.84 0.98 1.03 1.07 0.99 1.09 1.34 1.56 1.68 1.66 1.52 1.30 1.10
0.62 0.55 0.53 0.52 0.53 0.55 0.55 0.56 0.60 0.65 0.75 0.85 0.91 0.94 0.99 1.05 1.14 1.19 1.32 1.41 1.33 1.11 0.93 0.79 0.74 0.78 0.79 0.80 0.91 1.06 1.15 1.36 1.51 1.52 1.40 1.40 1.39 1.18
0.51 0.50 0.52 0.51 0.52 0.53 0.58 0.62 0.65 0.66 0.81 0.99 1.08 1.13 1.20 1.24 1.29 1.33 1.35 1.31 1.17 1.00 0.88 0.79 0.84 1.08 1.08 0.80 0.66 0.90 1.32 1.44 1.36 1.34 1.21 1.16 1.26 1.14
0.46 0.47 0.46 0.49 0.53 0.57 0.62 0.71 0.76 0.78 0.88 1.01 1.11 1.16 1.25 1.36 1.40 1.35 1.26 1.18 1.07 0.89 0.74 0.65 0.73 1.08 1.45 1.28 1.03 0.95 1.08 1.32 1.39 1.33 1.10 0.99 1.04 1.03
0.43 0.43 0.44 0.47 0.54 0.59 0.66 0.74 0.84 0.95 1.04 1.17 1.21 1.23 1.29 1.44 1.40 1.24 1.10 0.97 0.90 0.79 0.69 0.57 0.57 0.77 1.05 1.17 1.08 0.96 1.04 1.14 1.25 1.43 1.31 1.19 1.07 0.98
0.45 0.45 0.45 0.48 0.54 0.61 0.67 0.77 0.90 0.97 1.07 1.16 1.21 1.23 1.28 1.37 1.31 1.09 0.90 0.83 0.75 0.69 0.64 0.55 0.51 0.59 0.82 1.10 1.03 0.87 0.89 0.91 0.89 0.88 1.04 1.31 1.61 1.68
0.51 0.53 0.51 0.53 0.58 0.65 0.73 0.80 0.91 1.00 1.09 1.20 1.23 1.19 1.16 1.09 0.93 0.86 0.80 0.77 0.76 0.70 0.65 0.62 0.57 0.59 0.69 0.81 0.91 0.85 0.78 0.74 0.70 0.80 1.01 1.00 1.06 1.25

GEFSNE_prec_meanprecacc_174.txt.gz
Total_Precipitation_Accumulation
1.36 1.35 1.38 1.34 1.36 1.39 1.49 1.67 1.86 1.69 1.25 0.92 0.83 0.79 0.80 0.81 0.83 0.77 0.66 0.71 0.70 0.70 0.73 0.74 0.74 0.78 0.82 0.89 0.98 1.05 1.12 1.20 1.29 1.39 1.48 1.57 1.73 1.94
1.21 1.24 1.23 1.22 1.27 1.33 1.40 1.48 1.64 1.74 1.46 0.98 0.80 0.76 0.79 0.78 0.80 0.73 0.65 0.72 0.69 0.68 0.69 0.70 0.69 0.68 0.72 0.77 0.83 0.88 0.92 0.97 1.07 1.19 1.34 1.48 1.59 1.72
1.08 1.10 1.07 1.05 1.11 1.15 1.21 1.28 1.36 1.48 1.44 1.02 0.82 0.77 0.78 0.75 0.71 0.66 0.60 0.59 0.56 0.62 0.62 0.65 0.66 0.66 0.68 0.72 0.77 0.82 0.85 0.88 0.96 1.08 1.21 1.32 1.43 1.48
0.98 1.03 1.02 0.99 1.01 1.05 1.10 1.11 1.12 1.15 1.23 1.07 0.80 0.71 0.67 0.63 0.62 0.61 0.57 0.53 0.49 0.55 0.58 0.61 0.68 0.70 0.67 0.66 0.68 0.74 0.80 0.84 0.88 0.92 1.00 1.09 1.18 1.32
0.89 0.97 1.01 1.04 1.05 1.05 1.06 1.06 1.05 1.07 1.14 1.14 0.89 0.71 0.65 0.61 0.62 0.60 0.57 0.55 0.50 0.52 0.56 0.56 0.58 0.63 0.65 0.67 0.67 0.67 0.70 0.76 0.83 0.85 0.89 0.95 1.03 1.15
0.89 0.93 0.97 1.00 0.98 0.95 0.97 0.96 0.99 1.03 1.06 1.11 1.03 0.85 0.72 0.62 0.65 0.66 0.65 0.59 0.57 0.56 0.62 0.61 0.61 0.60 0.62 0.63 0.62 0.61 0.62 0.69 0.81 0.93 1.01 1.04 1.02 1.05
1.00 0.96 0.95 0.99 0.97 0.93 0.93 0.93 0.96 1.02 1.09 1.16 1.09 0.93 0.79 0.70 0.63 0.59 0.65 0.64 0.63 0.58 0.60 0.59 0.61 0.63 0.65 0.70 0.73 0.73 0.74 0.81 0.93 1.06 1.15 1.20 1.19 1.17
0.99 0.91 0.88 0.91 0.90 0.92 0.93 0.92 0.98 1.09 1.18 1.22 1.14 0.98 0.77 0.70 0.70 0.79 0.88 0.97 0.89 0.62 0.66 0.75 0.80 0.86 0.82 0.81 0.90 0.94 0.96 1.00 1.06 1.12 1.18 1.23 1.23 1.21
0.89 0.84 0.79 0.77 0.80 0.75 0.80 0.86 0.90 1.00 1.08 1.09 1.03 0.82 0.72 0.69 0.84 0.99 1.01 1.04 0.90 0.72 0.84 0.97 0.91 0.88 0.82 0.84 0.99 0.95 0.92 0.94 0.98 1.04 1.07 1.11 1.13 1.13
0.77 0.73 0.72 0.70 0.71 0.76 0.84 0.90 0.83 0.78 0.78 0.76 0.74 0.70 0.70 0.75 0.94 1.15 1.23 1.24 1.06 0.89 0.87 0.96 0.82 0.75 0.71 0.75 0.86 0.86 0.83 0.86 0.92 0.97 1.00 1.04 1.06 1.04
0.71 0.70 0.70 0.67 0.75 0.88 0.94 0.95 0.81 0.68 0.69 0.75 0.80 0.78 0.81 0.85 0.91 1.15 1.38 1.49 1.28 0.90 0.76 0.80 0.76 0.74 0.73 0.71 0.76 0.85 0.83 0.83 0.89 0.92 0.94 0.96 1.01 1.04
0.71 0.70 0.77 0.74 0.83 0.95 0.90 0.90 0.82 0.67 0.64 0.66 0.68 0.68 0.64 0.66 0.81 0.95 1.34 1.73 1.47 1.08 0.73 0.80 0.84 0.95 1.13 0.79 0.70 0.76 0.79 0.80 0.82 0.85 0.89 0.93 0.96 0.97
0.77 0.71 0.70 0.85 0.93 0.97 0.87 0.72 0.73 0.80 0.73 0.65 0.65 0.65 0.64 0.64 0.68 0.74 0.97 1.59 1.87 1.42 0.84 1.14 1.30 1.06 1.21 0.93 0.73 0.75 0.80 0.87 0.90 0.90 0.93 0.95 0.95 1.01
0.72 0.66 0.68 0.84 0.84 0.79 0.73 0.74 0.81 0.76 0.63 0.66 0.68 0.66 0.66 0.67 0.69 0.73 0.78 0.94 1.25 1.42 1.11 1.35 1.71 1.31 1.35 1.10 0.80 0.78 0.84 0.99 1.14 1.11 1.06 1.12 1.08 1.06
0.69 0.73 0.77 0.77 0.71 0.66 0.69 0.72 0.70 0.66 0.70 0.77 0.75 0.69 0.67 0.72 0.76 0.82 0.83 0.84 0.90 0.95 0.98 1.06 1.35 1.36 1.46 1.37 1.03 0.88 1.00 1.08 1.24 1.42 1.38 1.25 1.11 1.07
0.71 0.73 0.69 0.66 0.64 0.65 0.69 0.67 0.61 0.66 0.82 0.88 0.80 0.72 0.72 0.80 0.84 0.91 1.04 1.05 1.10 1.04 0.96 0.93 1.01 1.27 1.34 1.07 1.13 1.10 1.13 1.40 1.47 1.65 1.62 1.38 1.16 1.02
0.69 0.60 0.56 0.57 0.59 0.59 0.59 0.62 0.64 0.67 0.75 0.78 0.83 0.84 0.83 0.91 0.99 1.09 1.23 1.30 1.32 1.15 0.99 0.85 0.80 0.87 1.01 1.06 1.10 1.02 1.11 1.37 1.58 1.70 1.69 1.55 1.33 1.14
0.64 0.56 0.54 0.54 0.55 0.57 0.57 0.59 0.63 0.68 0.77 0.88 0.93 0.96 1.01 1.08 1.16 1.22 1.34 1.44 1.36 1.13 0.96 0.82 0.77 0.81 0.82 0.83 0.93 1.08 1.17 1.38 1.53 1.54 1.42 1.43 1.42 1.22
0.52 0.51 0.53 0.53 0.53 0.55 0.60 0.65 0.67 0.69 0.83 1.00 1.10 1.15 1.22 1.26 1.31 1.36 1.37 1.34 1.19 1.03 0.91 0.81 0.86 1.11 1.12 0.83 0.69 0.92 1.34 1.47 1.38 1.36 1.23 1.18 1.29 1.17
0.47 0.47 0.47 0.50 0.54 0.59 0.64 0.72 0.78 0.79 0.90 1.03 1.12 1.18 1.28 1.39 1.43 1.37 1.28 1.20 1.10 0.92 0.76 0.67 0.75 1.11 1.50 1.33 1.07 0.97 1.10 1.35 1.43 1.36 1.13 1.01 1.07 1.06
0.43 0.44 0.44 0.48 0.55 0.61 0.67 0.76 0.86 0.97 1.05 1.19 1.23 1.25 1.31 1.46 1.43 1.27 1.13 1.00 0.92 0.82 0.71 0.59 0.59 0.79 1.07 1.21 1.12 0.99 1.06 1.17 1.30 1.48 1.35 1.23 1.10 1.01
0.45 0.45 0.45 0.48 0.56 0.62 0.69 0.79 0.91 0.99 1.08 1.17 1.22 1.25 1.30 1.39 1.34 1.11 0.93 0.87 0.79 0.73 0.68 0.58 0.54 0.61 0.85 1.15 1.07 0.91 0.92 0.94 0.93 0.92 1.09 1.36 1.67 1.73
0.51 0.53 0.52 0.54 0.58 0.66 0.74 0.81 0.92 1.01 1.10 1.21 1.24 1.20 1.17 1.11 0.95 0.88 0.82 0.80 0.79 0.73 0.69 0.65 0.60 0.62 0.72 0.84 0.94 0.88 0.81 0.78 0.74 0.84 1.05 1.05 1.11 1.30

GEFSNE_prec_meanprecacc_180.txt.gz
Total_Precipitation_Accumulation
1.37 1.37 1.40 1.36 1.38 1.42 1.52 1.70 1.90 1.72 1.28 0.95 0.85 0.82 0.83 0.83 0.85 0.78 0.67 0.73 0.72 0.72 0.76 0.77 0.77 0.81 0.86 0.94 1.04 1.12 1.17 1.25 1.34 1.43 1.52 1.60 1.75 1.97
1.22 1.25 1.25 1.24 1.29 1.35 1.42 1.50 1.67 1.77 1.49 1.00 0.82 0.78 0.82 0.80 0.82 0.74 0.66 0.74 0.71 0.70 0.72 0.73 0.72 0.71 0.75 0.81 0.87 0.94 0.98 1.02 1.12 1.25 1.39 1.51 1.61 1.74
1.09 1.11 1.08 1.06 1.13 1.17 1.23 1.30 1.39 1.50 1.45 1.03 0.83 0.78 0.80 0.76 0.73 0.68 0.62 0.61 0.58 0.64 0.65 0.67 0.69 0.69 0.71 0.76 0.81 0.86 0.90 0.94 1.02 1.13 1.26 1.37 1.46 1.50
0.99 1.04 1.03 1.00 1.02 1.06 1.12 1.12 1.13 1.17 1.25 1.08 0.80 0.72 0.68 0.64 0.63 0.62 0.59 0.56 0.51 0.57 0.60 0.64 0.71 0.73 0.70 0.69 0.71 0.77 0.83 0.89 0.94 0.98 1.06 1.13 1.23 1.35
0.89 0.97 1.02 1.05 1.05 1.06 1.07 1.07 1.06 1.09 1.16 1.16 0.90 0.72 0.66 0.62 0.63 0.61 0.59 0.58 0.52 0.55 0.58 0.59 0.62 0.67 0.69 0.70 0.70 0.70 0.73 0.79 0.86 0.91 0.96 1.01 1.09 1.20
0.89 0.93 0.98 1.01 0.99 0.96 0.99 0.97 1.00 1.05 1.08 1.13 1.05 0.88 0.74 0.64 0.67 0.67 0.66 0.61 0.59 0.60 0.66 0.65 0.64 0.64 0.66 0.67 0.65 0.64 0.65 0.71 0.84 0.97 1.07 1.12 1.10 1.11
1.00 0.96 0.95 0.99 0.98 0.95 0.95 0.95 0.98 1.05 1.13 1.19 1.12 0.96 0.81 0.72 0.66 0.62 0.67 0.66 0.65 0.61 0.65 0.65 0.66 0.67 0.68 0.73 0.76 0.77 0.78 0.84 0.95 1.08 1.19 1.25 1.26 1.25
0.99 0.91 0.88 0.91 0.91 0.94 0.95 0.95 1.02 1.12 1.22 1.26 1.18 1.01 0.80 0.72 0.72 0.82 0.91 1.01 0.94 0.65 0.69 0.79 0.85 0.91 0.86 0.84 0.92 0.96 0.98 1.03 1.09 1.14 1.21 1.27 1.28 1.28
0.89 0.84 0.80 0.77 0.81 0.76 0.81 0.88 0.92 1.03 1.12 1.13 1.07 0.86 0.75 0.71 0.87 1.02 1.05 1.07 0.94 0.75 0.88 1.02 0.96 0.94 0.87 0.90 1.03 0.98 0.95 0.97 1.01 1.06 1.10 1.14 1.17 1.18
0.78 0.73 0.72 0.71 0.72 0.78 0.85 0.91 0.84 0.80 0.81 0.79 0.77 0.73 0.73 0.78 0.98 1.20 1.28 1.30 1.10 0.93 0.91 1.02 0.89 0.81 0.77 0.81 0.93 0.92 0.87 0.90 0.95 1.01 1.04 1.07 1.09 1.07
0.71 0.71 0.71 0.68 0.76 0.90 0.95 0.97 0.84 0.71 0.71 0.78 0.83 0.82 0.84 0.88 0.95 1.21 1.44 1.55 1.34 0.95 0.79 0.85 0.81 0.80 0.78 0.76 0.82 0.92 0.89 0.88 0.93 0.96 0.98 1.01 1.06 1.09
0.72 0.71 0.77 0.76 0.85 0.97 0.92 0.92 0.85 0.70 0.67 0.68 0.70 0.71 0.67 0.70 0.85 0.99 1.38 1.78 1.53 1.13 0.77 0.84 0.88 1.00 1.18 0.84 0.74 0.80 0.84 0.85 0.86 0.89 0.92 0.96 0.99 1.00
0.78 0.71 0.71 0.86 0.95 0.98 0.89 0.74 0.75 0.82 0.76 0.68 0.67 0.67 0.66 0.66 0.70 0.76 1.00 1.63 1.92 1.47 0.88 1.18 1.35 1.11 1.26 0.97 0.77 0.78 0.83 0.89 0.93 0.93 0.97 0.99 0.99 1.05
0.73 0.67 0.69 0.86 0.85 0.81 0.75 0.76 0.84 0.79 0.66 0.69 0.70 0.69 0.68 0.69 0.71 0.75 0.80 0.97 1.29 1.46 1.14 1.38 1.74 1.36 1.41 1.16 0.85 0.82 0.87 1.01 1.16 1.13 1.08 1.14 1.11 1.09
0.70 0.74 0.78 0.79 0.72 0.68 0.71 0.75 0.72 0.68 0.72 0.80 0.78 0.72 0.70 0.74 0.79 0.84 0.85 0.86 0.93 0.99 1.01 1.09 1.37 1.39 1.50 1.41 1.07 0.92 1.03 1.11 1.26 1.44 1.40 1.26 1.13 1.09
0.72 0.74 0.71 0.68 0.66 0.67 0.71 0.69 0.64 0.69 0.85 0.90 0.82 0.75 0.75 0.82 0.86 0.93 1.06 1.07 1.13 1.07 1.00 0.96 1.04 1.30 1.37 1.10 1.16 1.14 1.16 1.43 1.50 1.67 1.64 1.39 1.17 1.03
0.70 0.61 0.57 0.59 0.61 0.60 0.60 0.63 0.65 0.69 0.77 0.80 0.85 0.85 0.84 0.92 1.01 1.10 1.25 1.32 1.34 1.17 1.02 0.88 0.84 0.91 1.05 1.10 1.13 1.04 1.14 1.39 1.61 1.73 1.72 1.57 1.36 1.16
0.64 0.57 0.55 0.55 0.56 0.58 0.58 0.60 0.64 0.69 0.78 0.89 0.94 0.98 1.03 1.10 1.18 1.23 1.36 1.45 1.38 1.15 0.98 0.84 0.79 0.84 0.87 0.88 0.97 1.11 1.20 1.40 1.55 1.57 1.45 1.46 1.45 1.24
0.53 0.52 0.54 0.54 0.54 0.56 0.61 0.65 0.69 0.70 0.84 1.02 1.12 1.17 1.24 1.28 1.33 1.37 1.38 1.35 1.21 1.04 0.92 0.83 0.88 1.14 1.16 0.87 0.72 0.95 1.37 1.49 1.41 1.38 1.26 1.20 1.31 1.19
0.48 0.48 0.48 0.51 0.55 0.60 0.65 0.73 0.79 0.81 0.91 1.04 1.14 1.20 1.29 1.41 1.44 1.39 1.30 1.22 1.11 0.93 0.78 0.69 0.77 1.13 1.53 1.36 1.10 0.99 1.12 1.38 1.45 1.39 1.15 1.03 1.09 1.08
0.44 0.45 0.45 0.49 0.56 0.62 0.69 0.77 0.87 0.98 1.06 1.20 1.24 1.27 1.33 1.48 1.45 1.29 1.15 1.02 0.94 0.83 0.73 0.60 0.61 0.80 1.09 1.24 1.15 1.01 1.08 1.19 1.32 1.51 1.38 1.26 1.13 1.03
0.46 0.46 0.46 0.49 0.57 0.63 0.70 0.80 0.92 1.00 1.09 1.19 1.24 1.26 1.32 1.41 1.36 1.13 0.95 0.88 0.81 0.75 0.69 0.60 0.55 0.63 0.87 1.18 1.10 0.92 0.94 0.96 0.94 0.94 1.11 1.40 1.73 1.78
0.52 0.54 0.52 0.54 0.59 0.67 0.75 0.82 0.94 1.02 1.11 1.23 1.26 1.22 1.19 1.14 0.98 0.90 0.85 0.82 0.81 0.75 0.71 0.67 0.61 0.64 0.74 0.87 0.97 0.91 0.83 0.79 0.76 0.86 1.07 1.07 1.14 1.33

GEFSNE_prec_meanprecacc_186.txt.gz
Total_Precipitation_Accumulation
1.37 1.37 1.40 1.37 1.38 1.43 1.53 1.73 1.93 1.75 1.30 0.96 0.87 0.84 0.85 0.85 0.87 0.81 0.69 0.75 0.75 0.75 0.79 0.80 0.82 0.87 0.92 1.01 1.12 1.20 1.25 1.32 1.40 1.49 1.57 1.65 1.80 2.01
1.23 1.25 1.25 1.24 1.30 1.36 1.43 1.52 1.70 1.80 1.51 1.01 0.83 0.79 0.84 0.82 0.85 0.76 0.68 0.76 0.73 0.72 0.74 0.75 0.75 0.75 0.79 0.85 0.92 1.00 1.04 1.09 1.19 1.31 1.45 1.57 1.68 1.81
1.09 1.11 1.09 1.07 1.13 1.17 1.24 1.31 1.40 1.52 1.48 1.04 0.84 0.80 0.81 0.78 0.75 0.69 0.64 0.62 0.59 0.65 0.66 0.68 0.71 0.71 0.74 0.79 0.84 0.89 0.94 0.99 1.08 1.20 1.31 1.42 1.51 1.55
0.99 1.04 1.03 1.01 1.02 1.06 1.12 1.13 1.14 1.18 1.26 1.09 0.82 0.73 0.70 0.66 0.65 0.64 0.60 0.57 0.52 0.58 0.61 0.64 0.72 0.75 0.72 0.72 0.74 0.80 0.86 0.92 0.98 1.04 1.12 1.18 1.26 1.39
0.89 0.97 1.02 1.05 1.06 1.06 1.08 1.07 1.06 1.09 1.16 1.17 0.91 0.73 0.67 0.64 0.65 0.62 0.61 0.59 0.54 0.56 0.59 0.60 0.63 0.68 0.70 0.71 0.72 0.73 0.76 0.82 0.90 0.95 1.01 1.08 1.14 1.24
0.89 0.93 0.98 1.01 0.99 0.96 0.99 0.97 1.00 1.06 1.09 1.14 1.06 0.88 0.75 0.65 0.69 0.70 0.69 0.63 0.61 0.61 0.68 0.66 0.66 0.66 0.68 0.68 0.66 0.65 0.66 0.73 0.86 1.00 1.10 1.16 1.16 1.17
1.00 0.96 0.95 0.99 0.98 0.95 0.95 0.96 0.99 1.06 1.14 1.20 1.13 0.97 0.83 0.73 0.67 0.64 0.69 0.69 0.67 0.62 0.66 0.67 0.68 0.69 0.70 0.74 0.77 0.77 0.79 0.85 0.96 1.10 1.21 1.28 1.29 1.30
0.99 0.91 0.88 0.91 0.91 0.94 0.96 0.96 1.02 1.14 1.24 1.28 1.20 1.03 0.81 0.73 0.73 0.83 0.93 1.03 0.96 0.66 0.71 0.81 0.87 0.94 0.89 0.87 0.94 0.98 0.99 1.04 1.10 1.16 1.22 1.28 1.30 1.31
0.89 0.84 0.80 0.77 0.82 0.76 0.81 0.89 0.93 1.04 1.13 1.15 1.09 0.88 0.77 0.73 0.88 1.03 1.06 1.09 0.95 0.77 0.90 1.04 0.98 0.96 0.89 0.91 1.05 1.00 0.97 0.99 1.03 1.08 1.12 1.16 1.20 1.20
0.78 0.73 0.72 0.71 0.72 0.78 0.85 0.91 0.85 0.81 0.81 0.80 0.79 0.75 0.75 0.80 0.99 1.21 1.30 1.32 1.12 0.95 0.94 1.05 0.91 0.84 0.79 0.83 0.95 0.94 0.89 0.92 0.97 1.04 1.06 1.09 1.11 1.10
0.72 0.71 0.71 0.68 0.77 0.91 0.96 0.97 0.84 0.71 0.72 0.79 0.85 0.83 0.86 0.90 0.97 1.22 1.46 1.58 1.37 0.98 0.82 0.87 0.84 0.82 0.81 0.79 0.85 0.95 0.92 0.91 0.95 0.98 1.00 1.03 1.08 1.11
0.72 0.71 0.78 0.76 0.86 0.97 0.92 0.92 0.86 0.71 0.68 0.69 0.72 0.73 0.69 0.71 0.86 1.01 1.41 1.81 1.56 1.16 0.80 0.86 0.90 1.02 1.21 0.86 0.76 0.83 0.87 0.88 0.89 0.92 0.95 0.98 1.02 1.03
0.78 0.72 0.71 0.87 0.96 0.99 0.90 0.75 0.77 0.84 0.77 0.69 0.68 0.69 0.68 0.68 0.72 0.78 1.02 1.65 1.95 1.49 0.90 1.20 1.37 1.13 1.29 1.00 0.79 0.81 0.86 0.93 0.97 0.96 1.00 1.02 1.01 1.07
0.73 0.67 0.70 0.86 0.86 0.82 0.76 0.77 0.85 0.80 0.68 0.71 0.72 0.70 0.69 0.70 0.72 0.77 0.82 0.99 1.32 1.49 1.16 1.40 1.76 1.38 1.43 1.18 0.88 0.85 0.91 1.05 1.20 1.16 1.11 1.18 1.15 1.13
0.70 0.75 0.79 0.79 0.73 0.69 0.72 0.76 0.73 0.69 0.74 0.82 0.79 0.73 0.71 0.76 0.80 0.86 0.87 0.88 0.96 1.02 1.04 1.11 1.40 1.41 1.53 1.44 1.10 0.95 1.06 1.14 1.31 1.48 1.43 1.30 1.16 1.13
0.73 0.75 0.72 0.69 0.67 0.68 0.73 0.70 0.64 0.69 0.86 0.92 0.84 0.76 0.76 0.84 0.88 0.95 1.08 1.10 1.16 1.11 1.03 0.99 1.07 1.32 1.39 1.13 1.19 1.17 1.19 1.46 1.53 1.71 1.68 1.43 1.21 1.07
0.71 0.62 0.58 0.60 0.62 0.61 0.61 0.64 0.66 0.70 0.78 0.80 0.86 0.87 0.86 0.94 1.03 1.13 1.27 1.35 1.37 1.20 1.04 0.90 0.86 0.93 1.07 1.12 1.16 1.08 1.17 1.43 1.64 1.76 1.75 1.61 1.40 1.20
0.66 0.58 0.56 0.56 0.57 0.59 0.59 0.61 0.65 0.70 0.79 0.90 0.95 0.99 1.04 1.11 1.19 1.25 1.38 1.48 1.40 1.17 0.99 0.85 0.80 0.86 0.89 0.90 1.00 1.15 1.24 1.44 1.59 1.60 1.49 1.51 1.50 1.29
0.54 0.53 0.54 0.55 0.55 0.57 0.62 0.67 0.70 0.71 0.85 1.03 1.13 1.18 1.25 1.29 1.35 1.39 1.40 1.37 1.23 1.06 0.93 0.84 0.89 1.16 1.18 0.89 0.75 0.97 1.40 1.53 1.44 1.41 1.29 1.25 1.36 1.23
0.49 0.49 0.49 0.52 0.56 0.61 0.66 0.75 0.80 0.82 0.92 1.06 1.15 1.21 1.31 1.43 1.46 1.40 1.31 1.24 1.13 0.95 0.79 0.70 0.78 1.14 1.55 1.38 1.11 1.01 1.14 1.40 1.48 1.42 1.18 1.06 1.12 1.11
0.45 0.45 0.46 0.50 0.57 0.64 0.70 0.79 0.89 0.99 1.08 1.22 1.26 1.28 1.35 1.50 1.47 1.30 1.16 1.04 0.97 0.86 0.75 0.61 0.62 0.81 1.11 1.26 1.17 1.02 1.09 1.21 1.34 1.54 1.42 1.30 1.17 1.07
0.47 0.47 0.47 0.50 0.58 0.65 0.72 0.82 0.94 1.02 1.11 1.20 1.25 1.28 1.34 1.43 1.38 1.15 0.97 0.91 0.83 0.77 0.72 0.62 0.57 0.64 0.89 1.20 1.13 0.95 0.96 0.98 0.97 0.98 1.15 1.44 1.78 1.83
0.53 0.55 0.54 0.56 0.61 0.68 0.77 0.84 0.96 1.04 1.13 1.25 1.27 1.23 1.21 1.16 1.00 0.93 0.87 0.85 0.84 0.78 0.74 0.70 0.63 0.66 0.76 0.89 1.00 0.94 0.86 0.82 0.78 0.89 1.12 1.11 1.18 1.36

GEFSNE_prec_meanprecacc_192.txt.gz
Total_Precipitation_Accumulation
1.37 1.37 1.40 1.37 1.39 1.43 1.54 1.74 1.95 1.77 1.31 0.97 0.88 0.85 0.86 0.86 0.89 0.81 0.70 0.76 0.75 0.76 0.80 0.81 0.83 0.89 0.95 1.04 1.16 1.26 1.34 1.43 1.50 1.56 1.62 1.70 1.84 2.05
1.23 1.26 1.26 1.24 1.30 1.37 1.44 1.53 1.70 1.81 1.52 1.02 0.84 0.80 0.84 0.83 0.85 0.77 0.69 0.77 0.73 0.72 0.74 0.76 0.76 0.77 0.81 0.87 0.94 1.02 1.08 1.14 1.25 1.39 1.52 1.63 1.72 1.85
1.09 1.11 1.09 1.07 1.14 1.17 1.24 1.32 1.41 1.53 1.48 1.05 0.85 0.80 0.82 0.78 0.75 0.70 0.64 0.63 0.60 0.66 0.67 0.69 0.72 0.72 0.75 0.80 0.86 0.91 0.96 1.01 1.11 1.24 1.36 1.47 1.57 1.60
0.99 1.04 1.04 1.01 1.02 1.06 1.12 1.13 1.14 1.19 1.26 1.09 0.82 0.73 0.70 0.66 0.65 0.64 0.61 0.58 0.53 0.59 0.61 0.65 0.73 0.76 0.73 0.73 0.75 0.81 0.88 0.94 1.00 1.06 1.15 1.22 1.31 1.44
0.89 0.97 1.02 1.05 1.06 1.06 1.08 1.07 1.06 1.09 1.16 1.17 0.91 0.73 0.68 0.64 0.66 0.63 0.61 0.60 0.55 0.57 0.60 0.60 0.63 0.69 0.71 0.72 0.73 0.74 0.77 0.84 0.92 0.97 1.03 1.11 1.18 1.29
0.89 0.93 0.98 1.01 0.99 0.96 0.99 0.98 1.00 1.06 1.09 1.14 1.06 0.88 0.75 0.65 0.69 0.70 0.69 0.64 0.63 0.62 0.69 0.68 0.67 0.67 0.69 0.69 0.67 0.66 0.67 0.75 0.88 1.02 1.12 1.19 1.20 1.22
1.00 0.97 0.95 0.99 0.98 0.95 0.96 0.96 0.99 1.07 1.14 1.21 1.13 0.97 0.83 0.73 0.68 0.64 0.70 0.70 0.69 0.64 0.68 0.69 0.70 0.71 0.71 0.76 0.78 0.78 0.79 0.86 0.98 1.12 1.23 1.31 1.33 1.35
1.00 0.92 0.88 0.92 0.91 0.94 0.96 0.96 1.03 1.14 1.24 1.29 1.20 1.03 0.82 0.73 0.73 0.84 0.94 1.04 0.97 0.68 0.72 0.82 0.89 0.95 0.91 0.88 0.96 0.98 1.00 1.05 1.11 1.17 1.24 1.31 1.33 1.34
0.90 0.84 0.80 0.78 0.82 0.76 0.82 0.89 0.93 1.04 1.14 1.16 1.10 0.89 0.77 0.73 0.89 1.04 1.07 1.10 0.96 0.78 0.91 1.05 0.99 0.97 0.90 0.93 1.07 1.01 0.98 1.00 1.04 1.09 1.13 1.18 1.21 1.23
0.79 0.74 0.73 0.71 0.72 0.78 0.85 0.91 0.85 0.81 0.82 0.81 0.80 0.75 0.75 0.81 1.00 1.22 1.31 1.33 1.14 0.96 0.94 1.06 0.92 0.85 0.80 0.84 0.97 0.96 0.91 0.93 0.99 1.06 1.09 1.11 1.13 1.12
0.72 0.71 0.72 0.69 0.77 0.92 0.96 0.98 0.84 0.72 0.72 0.79 0.85 0.84 0.87 0.91 0.98 1.24 1.47 1.60 1.39 1.00 0.83 0.88 0.85 0.84 0.82 0.81 0.87 0.97 0.94 0.93 0.97 1.01 1.03 1.05 1.11 1.14
0.72 0.71 0.78 0.76 0.86 0.98 0.93 0.93 0.86 0.71 0.68 0.69 0.72 0.74 0.69 0.72 0.87 1.02 1.42 1.83 1.58 1.18 0.81 0.87 0.91 1.04 1.22 0.88 0.78 0.84 0.88 0.91 0.92 0.95 0.98 1.02 1.05 1.06
0.79 0.72 0.72 0.88 0.96 1.00 0.91 0.76 0.77 0.84 0.78 0.70 0.69 0.69 0.69 0.69 0.73 0.79 1.04 1.67 1.97 1.51 0.91 1.21 1.39 1.15 1.30 1.01 0.80 0.82 0.87 0.94 0.99 1.00 1.03 1.05 1.04 1.10
0.74 0.68 0.70 0.87 0.87 0.83 0.77 0.78 0.86 0.81 0.68 0.72 0.72 0.71 0.70 0.71 0.74 0.79 0.84 1.01 1.34 1.50 1.18 1.42 1.79 1.40 1.46 1.21 0.89 0.86 0.92 1.07 1.21 1.20 1.14 1.22 1.18 1.16
0.71 0.76 0.81 0.81 0.75 0.70 0.73 0.77 0.74 0.70 0.74 0.83 0.80 0.74 0.72 0.77 0.82 0.87 0.89 0.91 0.98 1.05 1.06 1.13 1.42 1.43 1.56 1.48 1.12 0.96 1.07 1.16 1.32 1.51 1.46 1.33 1.20 1.16
0.74 0.76 0.73 0.70 0.68 0.69 0.74 0.71 0.65 0.70 0.87 0.93 0.85 0.77 0.77 0.85 0.90 0.97 1.10 1.12 1.19 1.14 1.06 1.01 1.09 1.34 1.42 1.15 1.21 1.18 1.20 1.48 1.55 1.73 1.71 1.46 1.25 1.11
0.73 0.64 0.60 0.61 0.63 0.62 0.62 0.65 0.67 0.71 0.79 0.82 0.87 0.88 0.87 0.96 1.05 1.15 1.30 1.38 1.41 1.23 1.07 0.93 0.89 0.96 1.10 1.15 1.18 1.10 1.19 1.44 1.66 1.78 1.78 1.65 1.43 1.24
0.67 0.60 0.57 0.57 0.58 0.60 0.60 0.62 0.66 0.71 0.80 0.92 0.97 1.00 1.06 1.13 1.22 1.27 1.41 1.51 1.44 1.20 1.02 0.88 0.83 0.89 0.91 0.92 1.02 1.16 1.25 1.45 1.61 1.62 1.51 1.54 1.53 1.32
0.55 0.54 0.55 0.56 0.56 0.58 0.63 0.68 0.71 0.72 0.87 1.05 1.14 1.19 1.27 1.32 1.37 1.42 1.43 1.40 1.26 1.09 0.96 0.87 0.92 1.19 1.21 0.91 0.76 0.99 1.41 1.54 1.46 1.43 1.31 1.27 1.38 1.26
0.50 0.50 0.50 0.53 0.57 0.62 0.67 0.76 0.81 0.84 0.94 1.08 1.17 1.23 1.33 1.45 1.49 1.43 1.35 1.27 1.16 0.98 0.82 0.73 0.81 1.17 1.58 1.40 1.13 1.03 1.15 1.41 1.50 1.44 1.20 1.08 1.14 1.14
0.46 0.46 0.47 0.51 0.58 0.65 0.71 0.80 0.90 1.01 1.10 1.24 1.28 1.31 1.38 1.53 1.50 1.33 1.19 1.07 1.00 0.88 0.77 0.63 0.64 0.83 1.13 1.29 1.20 1.04 1.11 1.23 1.36 1.56 1.44 1.32 1.19 1.09
0.48 0.48 0.48 0.51 0.59 0.66 0.73 0.83 0.96 1.03 1.13 1.23 1.28 1.31 1.36 1.46 1.41 1.17 0.99 0.93 0.86 0.80 0.74 0.64 0.58 0.67 0.92 1.23 1.15 0.96 0.97 1.00 0.99 0.99 1.17 1.47 1.81 1.85
0.54 0.56 0.55 0.57 0.62 0.69 0.78 0.85 0.97 1.05 1.15 1.26 1.29 1.25 1.23 1.18 1.02 0.95 0.89 0.87 0.87 0.81 0.77 0.72 0.66 0.68 0.78 0.92 1.02 0.95 0.87 0.83 0.80 0.90 1.13 1.13 1.19 1.38